Find Starlink 35854

NORAD ID: 68214 Int'l Des: 2026-053 Owner: SPXS Country: US Constellation: starlink operational
LEOCIRCULARRETROGRADE

实时位置

正在加载3D地球...

关于 Starlink 35854

正在加载描述...

即将过境

Passes for default location (London). Set your location on the main map for personalized predictions.

高度历史

Loading altitude history...

两行轨道根数

1 68214U 26053H 26122.15576709 .00047395 00000-0 14234-2 0 9994
2 68214 97.2842 357.9562 0001962 91.8364 268.3104 15.34276329 8397
Epoch: May 2, 2026 • Age: 5 hours

当前状态

高度 465.0 km
速度 7.64 km/s
星下点 12.65°N, 177.89°W
发射日期 Mar 17, 2026
运行时间 0.1 years
类型 internet

技术详情

分类 Payload
质量 575.00 kg
干质量 530.00 kg
总质量 575.00 kg
长度 0.30 m
直径 4.10 m
跨度 29.00 m
形状 Box + pan
制造商 SPXS
平台类型 Starlink V2MO
阶段状态 In Orbit
所有者/国家 SPXS/US

Most Searched